Regional Weather Roundup
Issued by NWS

Home | Current Version | Previous Version | Graphics & Text | Print | Product List | Glossary On
Versions: 1 2 3 4 5 6 7 8 9 10 11 12 13 14 15 16 17 18 19 20 21 22 23 24 25 26 27 28 29 30 31 32 33 34 35 36 37 38 39 40 41 42 43 44 45 46 47 48 49 50
000
ASUS44 KMEG 050300
RWRTN
TENNESSEE HOURLY STATE WEATHER ROUNDUP
NATIONAL WEATHER SERVICE MEMPHIS TN
900 PM CST SUN DEC 04 2016

TNZ002-004-019-021-049-052-054-088>092-050400-
WEST TENNESSEE

CITY           SKY/WX    TMP DP  RH WIND       PRES   REMARKS
MEMPHIS INTL   CLOUDY    45  42  89 N7        30.06R
NWS MEMPHIS      N/A     45 N/A N/A MISG        N/A
JACKSON        CLOUDY    46  43  89 N9        30.05R
DYERSBURG      CLOUDY   N/A N/A N/A N5        30.05R
PARIS          CLOUDY    39  37  93 NW5       30.04R
$$

TNZ008-025-027-028-033-062-065-066-050400-
NORTH MIDDLE TENNESSEE

CITY           SKY/WX    TMP DP  RH WIND       PRES   REMARKS
NASHVILLE      CLOUDY    48  45  89 CALM      30.02R
CLARKSVILLE    CLOUDY    45  41  86 W8        30.02R
SMYRNA         CLOUDY    48  47  96 CALM      30.03R
CROSSVILLE     CLOUDY    45  44  97 S7        30.00R FOG
$$

TNZ061-075-076-078-094-096-097-050400-
SOUTH MIDDLE TENNESSEE

CITY           SKY/WX    TMP DP  RH WIND       PRES   REMARKS
TULLAHOMA      CLOUDY    46  45  93 CALM      30.01F
WINCHESTER     CLOUDY    46  45  93 CALM      30.01F
SHELBYVILLE    CLOUDY    50  48  93 CALM      30.03R
$$

TNZ017-018-042-046-047-050400-
NORTHEAST TENNESSEE

CITY           SKY/WX    TMP DP  RH WIND       PRES   REMARKS
TRI CITIES     CLOUDY    47  44  90 W3        29.98R
$$

TNZ012-013-036-069-073-074-050400-
CENTRAL EAST TENNESSEE

CITY           SKY/WX    TMP DP  RH WIND       PRES   REMARKS
KNOXVILLE      LGT RAIN  45  44  97 CALM      30.00S FOG
OAK RIDGE      CLOUDY    46  44  93 VRB6      30.02R
GATLINBURG     CLOUDY    43  43 100 CALM      30.00F
$$

TNZ083-085-099-050400-
SOUTHEAST TENNESSEE

CITY           SKY/WX    TMP DP  RH WIND       PRES   REMARKS
CHATTANOOGA    DRZL/FOG  46  44  93 S6        30.03F VSB 3/4
$$

SKY/WX REPORTED AS FAIR MEANS FEW OR NO CLOUDS BELOW
12 THOUSAND FEET.




USA.gov is the U.S. government's official web portal to all federal, state and local government web resources and services.